#timestamp,LO_Frequency,Hit,StdDev 
1678690815.6,286047000.0,P
1678690835.4,286047000.7,N
1678690855.3,286047000.7,N
1678690875.1,286047001.2,Y
1678690876.0,286047001.2,P
1678690895.8,286046998.9,P
1678690915.7,286046998.8,N
1678690935.5,286046996.7,Y
1678690955.4,286046997.3,P
1678690975.2,286046997.7,N
1678690995.1,286046995.0,P
1678690996.0,286046995.0,N
1678691015.8,286046997.1,N
1678691035.6,286046996.9,N
1678691055.5,286046998.8,N
1678691075.3,286046999.3,N
1678691095.1,286046999.2,N
1678691115.9,286046998.8,N
1678691135.7,286046998.8,N
1678691155.6,286046998.7,N
1678691175.4,286046998.8,N
1678691195.2,286047000.1,N
1678691215.1,286047001.0,N
1678691216.0,286047001.0,N
1678691235.8,286046999.1,N
1678691255.7,286046998.8,N
1678691275.5,286046999.4,N
1678691295.3,286046998.9,N
1678691315.2,286046998.3,N
1678691335.0,286047001.2,N
1678691335.9,286047001.2,N
1678691355.8,286046999.0,N
1678691375.6,286047000.0,N
1678691395.4,286047001.0,N
1678691415.3,286047001.0,N
1678691435.1,286047001.1,N
1678691455.9,286047000.9,N
1678691475.7,286047000.4,N
1678691495.5,286046998.9,N
1678691515.4,286046999.5,N
1678691535.2,286046999.1,N
1678691555.0,286046999.1,N
1678691556.0,286046999.1,N
1678691575.8,286046998.8,N
1678691595.6,286046999.6,N
1678691615.5,286046996.5,Y
1678691635.3,286046996.9,P
1678691655.2,286046999.2,N
1678691675.9,286046998.1,N
1678691695.7,286046998.3,N
1678691715.6,286046998.7,N
1678691735.4,286046998.9,N
1678691755.3,286046998.9,N
1678691775.1,286046998.7,N
1678691776.0,286046998.7,N
1678691795.8,286046999.0,N
1678691815.7,286046999.2,N
1678691835.5,286046996.5,Y
1678691855.4,286047000.6,P
1678691875.2,286047000.8,N
1678691895.0,286047001.1,N
1678691895.9,286047001.1,N
1678691915.8,286047000.5,N
1678691935.6,286047000.9,N
1678691955.5,286047002.5,Y
1678691975.3,286046999.7,P
1678691995.1,286047001.9,P
1678692015.9,286047002.3,N
1678692035.7,286047000.3,N
1678692055.6,286047001.0,N
1678692075.4,286046998.3,N
1678692095.2,286046999.0,N
1678692115.1,286046999.4,N
1678692116.0,286046999.4,N
1678692135.8,286046996.6,N
1678692155.6,286046998.5,N
1678692175.5,286046999.2,N
1678692195.3,286046998.4,N
1678692215.2,286046999.1,N
1678692235.9,286046998.8,N
1678692255.7,286046998.9,N
1678692275.6,286046998.4,N
1678692295.4,286046998.5,N
1678692315.2,286046998.8,N
1678692335.1,286046999.3,N
1678692336.0,286046999.3,N
1678692355.8,286046998.5,N
1678692375.7,286046998.3,N
1678692395.5,286046999.6,N
1678692415.3,286046999.2,N
1678692435.2,286046996.9,N
1678692455.9,286046999.0,N
1678692475.7,286046998.8,N
1678692495.6,286046997.7,N
1678692515.4,286046997.3,N
1678692535.3,286046997.8,N
1678692555.1,286046997.9,N
1678692556.0,286046997.9,N
1678692575.8,286046996.7,Y
1678692595.7,286046998.3,P
1678692615.5,286047000.3,N
1678692635.3,286047000.3,N
1678692655.2,286046998.7,N
1678692675.0,286046998.1,N
1678692675.9,286046998.1,N
1678692695.8,286047001.2,N
1678692715.6,286046998.8,N
1678692735.4,286047000.7,N
1678692755.3,286047000.4,N
1678692775.1,286047000.3,N
1678692795.8,286047001.1,N
1678692815.7,286047000.9,N
1678692835.5,286047000.8,N
1678692855.4,286047000.5,N
1678692875.2,286047000.7,N
1678692895.0,286047001.1,N
1678692895.9,286047001.1,N
1678692915.8,286046999.7,N
1678692935.6,286046999.7,N
1678692955.5,286047004.4,Y
1678692975.3,286047002.5,P
1678692995.1,286047001.6,N
1678693015.9,286047002.4,N
1678693035.7,286047000.2,N
1678693055.6,286047000.5,N
1678693075.4,286047001.2,N
1678693095.2,286046999.7,N
1678693115.1,286046999.8,N
1678693116.0,286046999.8,N
1678693135.8,286047000.5,N
1678693155.6,286047000.0,N
1678693175.5,286047000.5,N
1678693195.3,286047000.8,N
1678693215.2,286046998.4,N
1678693235.9,286047001.0,N
1678693255.7,286047002.1,N
1678693275.6,286047001.5,N
1678693295.4,286047000.5,N
1678693315.2,286047000.9,N
1678693335.1,286046999.8,N
1678693336.0,286046999.8,N
1678693355.8,286047002.4,N
1678693375.7,286047001.7,N
1678693395.5,286047003.8,Y
1678693415.3,286047002.8,P
1678693435.2,286047002.0,N
1678693455.0,286046999.9,N
1678693455.9,286046999.9,N
1678693475.7,286047000.3,N
1678693495.6,286047000.0,N
1678693515.4,286047000.5,N
1678693535.3,286046998.5,N
1678693555.1,286046998.1,N
1678693556.0,286046998.1,N
1678693575.8,286047000.2,N
1678693595.7,286047000.3,N
1678693615.5,286047000.6,N
1678693635.4,286047001.1,N
1678693655.2,286047000.9,N
1678693675.0,286047001.9,N
1678693675.9,286047001.9,N
1678693695.8,286047002.2,N
1678693715.6,286046999.7,N
1678693735.5,286047002.8,N
1678693785.3,286046999.8,E
1678693795.2,286046999.8,N
1678693815.1,286047002.6,P
1678693816.0,286047002.6,N
1678693835.8,286047001.5,N
1678693855.7,286047002.6,N
1678693875.5,286047002.0,N
1678693895.3,286047001.5,N
1678693915.2,286047001.8,N
1678693935.0,286047001.8,N
1678693935.9,286047001.8,N
1678693955.7,286047001.4,N
1678693975.6,286047002.1,N
1678693995.4,286047001.4,N
1678694015.3,286047003.8,Y
1678694035.1,286047002.4,P
1678694036.0,286047002.4,P
1678694055.8,286046999.9,N
1678694075.7,286047000.1,N
1678694095.5,286047000.1,N
1678694115.3,286047001.1,N
1678694135.2,286046999.6,N
1678694155.0,286046999.0,N
1678694155.9,286046999.0,N
1678694175.8,286046998.4,N
1678694195.6,286047000.6,N
1678694215.4,286046999.7,N
1678694235.3,286047000.7,N
1678694255.1,286047001.2,N
1678694275.9,286047000.3,N
1678694295.7,286046998.7,N
1678694315.5,286046996.9,N
1678694335.4,286046998.6,N
1678694355.2,286046998.9,N
1678694375.0,286046996.8,N
1678694375.9,286046996.8,N
1678694395.8,286046998.7,N
